This demonstration page uses our WeatherBlox Daily Observations layout. Learn more.

Left ArrowRight Arrow

44.8408, -93.29828

Hourly Observations for June 28, 2017

Temp ( °F °C ) Dew Point ( °F °C ) Humidity (%) Winds ( mph kmh ) Pressure ( in mb ) Visibility ( mi km ) Precip ( " mm )
12:28 am 00:28 Mostly Cloudy 68 20 46 7.8 45 45 SE 10 17 29.77 1008 10 16 0.00 0.00
12:53 am 00:53 Partly Cloudy 67 19.4 46 7.8 47 47 SSE 13 20 29.74 1007 10 16 0.00 0.00
1:53 am 01:53 Mostly Cloudy 67 19.4 47 8.3 49 49 SSE 13 20 29.72 1006 10 16 0.00 0.00
2:53 am 02:53 Mostly Cloudy 67 19.4 48 8.9 51 51 SSE 12 19 29.68 1005 10 16 0.00 0.00
3:31 am 03:31 Cloudy with Thunderstorms 68 20 49 9.4 51 51 S 13 20 29.74 1007 10 16 0.00 0.00
3:53 am 03:53 Cloudy with Thunderstorms 64 17.8 54 12.2 70 70 S 16 26 29.70 1006 4 6 0.05 1.27
4:53 am 04:53 Cloudy with Thunderstorms 62 16.7 59 15 90 90 SE 12 19 29.69 1005 8 13 0.23 5.84
5:15 am 05:15 Cloudy with Rain 62 16.7 59 15 90 90 SE 13 20 29.68 1005 4 6 0.06 1.52
5:17 am 05:17 Cloudy with Rain 62 16.7 59 15 90 90 SE 13 20 29.68 1005 4 6 0.06 1.52
5:53 am 05:53 Cloudy with Rain 63 17.2 59 15 87 87 ESE 21 33 29.62 1003 4 6 0.17 4.32
6:53 am 06:53 Cloudy with Light Rain 63 17.2 60 15.6 90 90 SSE 16 26 29.63 1003 10 16 0.11 2.79
7:53 am 07:53 Cloudy with Rain 65 18.3 62 16.7 90 90 S 13 20 29.62 1003 10 16 0.12 3.05
8:53 am 08:53 Cloudy 67 19.4 62 16.7 84 84 S 13 20 29.61 1003 10 16 0.01 0.25
9:06 am 09:06 Cloudy 68 20 62 16.7 81 81 S 14 22 29.59 1002 10 16 0.00 0.00
9:53 am 09:53 Cloudy with Light Rain 67 19.4 62 16.7 84 84 S 18 30 29.62 1003 8 13 0.02 0.51
10:06 am 10:06 Cloudy with Light Rain 67 19.4 62 16.7 84 84 S 14 22 29.59 1002 8 13 0.00 0.03
10:53 am 10:53 Cloudy 68 20 64 17.8 87 87 SSE 13 20 29.57 1002 10 16 0.05 1.27
11:45 am 11:45 Cloudy 69 20.6 65 18.3 87 87 S 12 19 29.53 1000 10 16 0.00 0.03
11:53 am 11:53 Cloudy 70 21.1 65 18.3 84 84 S 9 15 29.56 1001 10 16 0.00 0.03
12:00 pm 12:00 Cloudy with Light Rain 70 21.1 64 17.8 82 82 S 16 26 29.56 1001 10 16 0.00 0.03
12:17 pm 12:17 Cloudy with Light Rain 70 21.1 65 18.3 84 84 S 14 22 29.53 1000 10 16 0.00 0.03
12:53 pm 12:53 Mostly Cloudy 75 23.9 67 19.4 76 76 SSE 8 13 29.54 1000 10 16 0.00 0.03
1:02 pm 13:02 Mostly Cloudy 75 23.9 66 18.9 74 74 S 10 17 29.53 1000 10 16 0.00 0.00
1:28 pm 13:28 Cloudy 76 24.4 65 18.3 69 69 S 13 20 29.53 1000 10 16 0.00 0.00
1:38 pm 13:38 Mostly Cloudy 78 25.6 66 18.9 67 67 S 12 19 29.53 1000 10 16 0.00 0.00
1:53 pm 13:53 Mostly Cloudy 78 25.6 66 18.9 67 67 S 18 30 29.52 1000 10 16 0.00 0.00
2:53 pm 14:53 Mostly Cloudy 82 27.8 65 18.3 56 56 SSW 10 17 29.49 999 10 16 0.00 0.00
3:27 pm 15:27 Mostly Cloudy with Nearby Thunderstorms 82 27.8 67 19.4 60 60 SW 17 28 29.44 997 10 16 0.00 0.03
3:53 pm 15:53 Mostly Cloudy 82 27.8 64 17.8 55 55 W 20 31 29.48 998 10 16 0.00 0.03
4:22 pm 16:22 Mostly Cloudy with Nearby Thunderstorms 81 27.2 65 18.3 58 58 WSW 12 19 29.47 998 10 16 0.00 0.00
4:37 pm 16:37 Mostly Cloudy with Light Rain 74 23.3 68 20 82 82 WNW 10 17 29.47 998 9 14 0.15 3.81
4:42 pm 16:42 Mostly Cloudy with Nearby Thunderstorms 74 23.3 69 20.6 85 85 WNW 8 13 29.47 998 9 14 0.15 3.81
4:53 pm 16:53 Mostly Cloudy with Thunderstorms 76 24.4 70 21.1 82 82 NW 9 15 29.50 999 9 14 0.15 3.81
5:08 pm 17:08 Mostly Cloudy with Nearby Thunderstorms 78 25.6 70 21.1 76 76 NW 9 15 29.47 998 10 16 0.00 0.00
5:25 pm 17:25 Mostly Cloudy 78 25.6 69 20.6 74 74 WNW 13 20 29.47 998 10 16 0.00 0.00
5:53 pm 17:53 Mostly Cloudy 79 26.1 66 18.9 65 65 NW 17 28 29.51 999 10 16 0.00 0.00
6:53 pm 18:53 Partly Cloudy 79 26.1 62 16.7 56 56 W 17 28 29.51 999 10 16 0.00 0.00
7:53 pm 19:53 Mostly Sunny 77 25 61 16.1 58 58 W 14 22 29.52 1000 10 16 0.00 0.00
8:53 pm 20:53 Mostly Sunny 75 23.9 61 16.1 62 62 W 7 11 29.53 1000 10 16 0.00 0.00
9:53 pm 21:53 Partly Cloudy 74 23.3 62 16.7 67 67 WNW 12 19 29.55 1001 10 16 0.00 0.00
10:53 pm 22:53 Mostly Cloudy 70 21.1 60 15.6 71 71 NW 15 24 29.61 1003 10 16 0.00 0.00
11:53 pm 23:53 Cloudy 70 21.1 59 15 68 68 W 14 22 29.61 1003 10 16 0.00 0.00

Powered by AerisWeather